Location: Newark
(50.4348°N, 30.5552°E)
Time: 05:01:40
(UTC+00:00)

Envisat - Pass Details

Date: 10 December 2019
Orbit: 764 x 766 km, 98.1° (Epoch: 20 January)

Event Time Altitude Azimuth Distance (km) Brightness Sun altitude
Rises 17:38:21 0° 227° (SW) 3,226 6.7 -34.5°
Reaches altitude 10° 17:43:08 10° 268° (W) 2,308 6.2 -35.2°
Maximum altitude 17:43:56 10° 277° (W) 2,286 6.2 -35.4°
Drops below altitude 10° 17:44:45 10° 286° (WNW) 2,311 6.2 -35.5°
Sets 17:49:35 0° 328° (NNW) 3,246 6.7 -36.3°
